Weather History for Guatemala Aeropuertola Aurora, Guatemala

Change the Weather History Date:

Sunday, July 14, 2013

  Actual Average Record
Temperature  
Mean Temperature 69 °F -  
Max Temperature 78 °F 74 °F - ()
Min Temperature 60 °F 60 °F - ()
Cooling Degree Days 4    
Growing Degree Days 19 (Base 50)    
Moisture  
Dew Point 61 °F    
Average Humidity 83    
Maximum Humidity 100    
Minimum Humidity 51    
Precipitation  
Precipitation 0.01 in - - ()
Sea Level Pressure  
Sea Level Pressure 30.20 in    
Wind  
Wind Speed 3 mph ()    
Max Wind Speed 18 mph    
Max Gust Speed -    
Visibility 4.2 miles    
Events Fog , Rain , Thunderstorm    
T = Trace of Precipitation, MM = Missing Value Source: Averaged Metar Reports

Daily Weather History Graph

Daily Weather History Graph

Search for Another Location

Airport:

Trip Planner

Search our weather history database for the weather conditions in past years. The results will help you decide how hot, cold, wet, or windy it might be!

Date:

Astronomy

Jul. 14, 2013 Rise Set
Actual Time 5:40 AM CST 6:35 PM CST
Civil Twilight 5:17 AM CST 6:58 PM CST
Nautical Twilight 4:49 AM CST 7:25 PM CST
Astronomical Twilight 4:21 AM CST 7:53 PM CST
Moon 10:50 AM CST (7/14) 10:59 PM CST (7/14)
Length of Visible Light 13h 41m
Length of Day
12h 54m
Waxing Crescent, 35% of the Moon is Illuminated
Jul 14
Waxing Crescent
Jul 15
First Quarter
Jul 22
Full
Jul 29
Last Quarter
Aug 6
New

Hourly Weather History & Observations

Time (CST) Temp. Dew Point Humidity Pressure Visibility Wind Dir Wind Speed Gust Speed Precip Events Conditions
12:00 AM 62.6 °F 59.0 °F 88% 30.27 in 3.1 mi Calm Calm - N/A   Light Drizzle
1:00 AM 62.6 °F 60.8 °F 94% 30.27 in 2.5 mi Calm Calm - N/A   Overcast
2:00 AM 62.6 °F 60.8 °F 94% 30.24 in 1.9 mi Calm Calm - N/A   Overcast
3:00 AM 60.8 °F 60.8 °F 100% 30.21 in 3.1 mi Calm Calm - N/A   Mostly Cloudy
4:00 AM 60.8 °F 60.8 °F 100% 30.21 in 0.1 mi Calm Calm - N/A Fog Fog
5:00 AM 60.8 °F 60.8 °F 100% 30.21 in 0.1 mi Calm Calm - N/A Fog Fog
6:00 AM 60 °F 60 °F 100% 29.95 in 0 mi Calm Calm - - Fog Heavy Fog
6:00 AM 60.8 °F 60.8 °F 100% 30.24 in 0.1 mi South 4.6 mph - N/A Fog Fog
7:00 AM 60.8 °F 60.8 °F 100% 30.24 in 0.1 mi Calm Calm - N/A Fog Fog
7:41 AM - - N/A% - 0.5 mi Calm Calm - N/A Fog Fog
8:00 AM 62.6 °F 62.6 °F 100% 30.24 in 0.7 mi Calm Calm - N/A   Mostly Cloudy
8:27 AM - - N/A% - 3.1 mi Calm Calm - N/A   Scattered Clouds
9:00 AM 66.2 °F 64.4 °F 94% 30.27 in 3.1 mi Variable 2.3 mph - N/A   Partly Cloudy
9:36 AM - - N/A% - 6.2 mi South 4.6 mph - N/A   Scattered Clouds
10:00 AM 71.6 °F 62.6 °F 73% 30.27 in 6.2 mi South 5.8 mph - N/A   Scattered Clouds
11:00 AM 73.4 °F 60.8 °F 65% 30.27 in 6.2 mi South 6.9 mph - N/A   Scattered Clouds
12:00 PM 74 °F 59 °F 51% 29.93 in 25 mi South 17.9 mph - -   Partly Cloudy
12:00 PM 73.4 °F 59.0 °F 61% 30.24 in 6.2 mi South 9.2 mph - N/A   Scattered Clouds
1:00 PM 75.2 °F 59.0 °F 57% 30.21 in 6.2 mi South 9.2 mph - N/A   Scattered Clouds
2:00 PM 75.2 °F 62.6 °F 65% 30.21 in 6.2 mi South 13.8 mph - N/A   Partly Cloudy
3:00 PM 77.0 °F 62.6 °F 61% 30.18 in 6.2 mi SW 11.5 mph - N/A   Scattered Clouds
3:22 PM - - N/A% - 6.2 mi NNE 6.9 mph - N/A   Scattered Clouds
4:00 PM 69.8 °F 62.6 °F 78% 30.18 in 6.2 mi NNE 11.5 mph - N/A   Scattered Clouds
4:30 PM - - N/A% - 6.2 mi NE 9.2 mph - N/A Thunderstorm Thunderstorm
5:00 PM 68.0 °F 60.8 °F 78% 30.18 in 6.2 mi NE 9.2 mph - N/A   Scattered Clouds
5:10 PM - - N/A% - 5.0 mi East 6.9 mph - N/A Thunderstorm Thunderstorm
6:00 PM 69 °F 61 °F 70% 29.90 in 25 mi Calm Calm - - Rain Light Drizzle
6:00 PM 68.0 °F 60.8 °F 78% 30.18 in 6.2 mi Calm Calm - N/A   Light Drizzle
6:28 PM - - N/A% - 6.2 mi South 4.6 mph - N/A   Mostly Cloudy
7:00 PM 68.0 °F 60.8 °F 78% 30.21 in 6.2 mi Calm Calm - N/A   Scattered Clouds
8:00 PM 68.0 °F 62.6 °F 83% 30.24 in 6.2 mi Calm Calm - N/A   Scattered Clouds
9:00 PM 66.2 °F 62.6 °F 88% 30.24 in 6.2 mi North 6.9 mph - N/A   Scattered Clouds
10:00 PM 66.2 °F 62.6 °F 88% 30.27 in 6.2 mi North 6.9 mph - N/A   Scattered Clouds
11:00 PM 64.4 °F 64.4 °F 100% 30.27 in 6.2 mi North 4.6 mph - N/A   Mostly Cloudy